OPS 4682 DEB, 19964

Orbit data source: Space-Track

OPS 4682 DEB, 19964 is space debris in LEO originally from a launch on Sat, 03 Apr 1965 UTC launched from the Air Force Western Test Range (AFWTR). Debris objects in space refer to the collection of defunct objects orbiting the Earth. Examples of debris include non-operational satellites, rocket bodies, and fragments generated from explosions, collisions, or faulty payload assembly.

Loading next visibility...
Identifier
19964, 1965-027BA
Orbit
LEO
Country
Flag of USUS
Related business
Manufacturer
Unknown
Mission
Spacecraft
Bus & Motor
Unknown
Mass
Unknown
Launch date (UTC)
1965-04-03 (61 years ago)
Launch vehicle
Unknown
Launch site
Air Force Western Test Range (AFWTR)
Object type
Payload
Rocket body
Debris
Shape & HBR
Unknown shape, 0.1 m
Radar Cross Section
Small (<0.1 m²)

Expand to show TLE details & history
Last TLE update: 15 hours ago

TLE from 15 hours ago
0 OPS 4682 DEB
1 19964U 65027BA  25349.33832703 -.00000074  00000-0 -28269-3 0  9994
2 19964  90.2568  12.7057 0016735 305.2306 114.0206 12.96916346528235
Epoch: 2025-12-15T08:07Z
TLE epoch observation values (Epoch: 2025-12-15T08:07:11.455Z)
Latitude
59.51305°
Longitude
166.23564°
Altitude
1,289.589 km
Speed
7.214 km/s
True Right ascension
00h 49m 05s
True Declination
59° 22' 23"
Sunlit
Object was in daylight at epoch
Visualization orbit readout
Latitude
Unknown
Longitude
Unknown
Altitude
Unknown
Speed
Unknown
Apparent Right ascension
Unknown
Apparent Declination
Unknown
Sunlit
N/A
Visualization observer readout
Local Sidereal Time
22:10:22
Azimuth
Unknown
Elevation
Unknown
Doppler factor
Unknown
Orbital elements
Apogee altitude
1,284.125 km
Perigee altitude
1,258.523 km
Semi-major axis
7,649.461 km
Eccentricity
0.00167
Inclination
90.2568°
RAAN
12.7057°
Arg. of periapsis
305.2306°
True anomaly
114.19561°
Mean anomaly
114.0206°
Eccentric anomaly
114.10812°
Mean motion
3.24412 °/min
Orbital period
110.97 mins
BSTAR
-0.00028269
Loading maneuver chart data...
Computing Atmospheric mass density...
Loading historical data...
Loading historical data...
Loading historical data...
Loading historical data...
Loading historical data...
Loading historical data...
Loading historical data...

Documentation

Showing up to 5 results
|